H1 CPF 2 NER 2025 11 4 9 308 01 glonass140 H2 1903001 9140 44299 2025 11 4 0 0 0 2025 11 7 23 45 0 900 1 1 0 0 0 1 H9 10 0 60983 0.00000 0 23611627.554 -9603254.618 -1082156.914 10 0 60983 900.00000 0 23253942.086 -9582743.158 -4265367.326 10 0 60983 1800.00000 0 22560840.793 -9348038.703 -7365728.243 10 0 60983 2700.00000 0 21573340.253 -8861250.625 -10322981.768 10 0 60983 3600.00000 0 20341268.996 -8094284.393 -13079619.357 10 0 60983 4500.00000 0 18921134.426 -7030289.786 -15582005.004 10 0 60983 5400.00000 0 17373726.823 -5664640.695 -17781424.410 10 0 60983 6300.00000 0 15761561.259 -4005403.336 -19635039.195 10 0 60983 7200.00000 0 14146265.117 -2073271.190 -21106727.119 10 0 60983 8100.00000 0 12586021.231 99032.460 -22167791.569 10 0 60983 9000.00000 0 11133174.251 2467861.194 -22797526.185 10 0 60983 9900.00000 0 9832100.957 4980216.476 -22983623.381 10 0 60983 10800.00000 0 8717434.017 7575718.676 -22722418.510 10 0 60983 11700.00000 0 7812713.710 10188896.749 -22018964.748 10 0 60983 12600.00000 0 7129524.081 12751701.655 -20886936.924 10 0 60983 13500.00000 0 6667149.376 15196139.071 -19348365.977 10 0 60983 14400.00000 0 6412764.664 17456911.674 -17433209.000 10 0 60983 15300.00000 0 6342151.790 19473960.719 -15178763.129 10 0 60983 16200.00000 0 6420909.533 21194800.657 -12628934.746 10 0 60983 17100.00000 0 6606105.762 22576549.215 -9833378.391 10 0 60983 18000.00000 0 6848300.538 23587568.055 -6846522.625 10 0 60983 18900.00000 0 7093853.355 24208645.668 -3726502.393 10 0 60983 19800.00000 0 7287415.551 24433673.518 -534019.473 10 0 60983 20700.00000 0 7374501.200 24269787.985 2668845.909 10 0 60983 21600.00000 0 7304026.575 23736973.359 5819848.260 10 0 60983 22500.00000 0 7030709.814 22867143.930 8857790.437 10 0 60983 23400.00000 0 6517228.710 21702745.192 11723713.459 10 0 60983 24300.00000 0 5736045.010 20294934.297 14362039.104 10 0 60983 25200.00000 0 4670818.043 18701417.319 16721643.193 10 0 60983 26100.00000 0 3317348.070 16984034.874 18756839.097 10 0 60983 27000.00000 0 1684009.581 15206197.681 20428253.200 10 0 60983 27900.00000 0 -208343.751 13430279.323 21703576.418 10 0 60983 28800.00000 0 -2326998.824 11715074.696 22558178.391 10 0 60983 29700.00000 0 -4628502.215 10113429.327 22975573.733 10 0 60983 30600.00000 0 -7060232.859 8670137.222 22947732.475 10 0 60983 31500.00000 0 -9562363.906 7420193.516 22475229.577 10 0 60983 32400.00000 0 -12070133.540 6387473.242 21567231.216 10 0 60983 33300.00000 0 -14516331.947 5583889.982 20241318.298 10 0 60983 34200.00000 0 -16833902.615 5009068.318 18523150.363 10 0 60983 35100.00000 0 -18958551.423 4650542.854 16445975.829 10 0 60983 36000.00000 0 -20831256.321 4484474.927 14049997.117 10 0 60983 36900.00000 0 -22400574.205 4476856.691 11381601.932 10 0 60983 37800.00000 0 -23624649.533 4585151.986 8492474.457 10 0 60983 38700.00000 0 -24472841.224 4760305.145 5438602.610 10 0 60983 39600.00000 0 -24926899.829 4949033.266 2279199.789 10 0 60983 40500.00000 0 -24981645.384 5096305.364 -924438.611 10 0 60983 41400.00000 0 -24645117.077 5147903.589 -4110122.056 10 0 60983 42300.00000 0 -23938187.751 5052957.915 -7215972.063 10 0 60983 43200.00000 0 -22893658.842 4766346.443 -10181626.056 10 0 60983 44100.00000 0 -21554873.105 4250858.827 -12949414.120 10 0 60983 45000.00000 0 -19973902.975 3479030.058 -15465485.223 10 0 60983 45900.00000 0 -18209390.328 2434565.614 -17680860.462 10 0 60983 46800.00000 0 -16324128.143 1113296.048 -19552392.351 10 0 60983 47700.00000 0 -14382485.577 -476381.045 -21043610.992 10 0 60983 48600.00000 0 -12447784.487 -2313592.205 -22125440.282 10 0 60983 49500.00000 0 -10579737.471 -4365610.422 -22776769.926 10 0 60983 50400.00000 0 -8832054.920 -6588984.161 -22984871.817 10 0 60983 51300.00000 0 -7250321.299 -8931127.262 -22745652.455 10 0 60983 52200.00000 0 -5870229.548 -11332304.373 -22063736.232 10 0 60983 53100.00000 0 -4716247.336 -13727929.725 -20952377.710 10 0 60983 54000.00000 0 -3800770.607 -16051083.729 -19433204.384 10 0 60983 54900.00000 0 -3123799.244 -18235142.487 -17535794.691 10 0 60983 55800.00000 0 -2673147.604 -20216410.271 -15297099.430 10 0 60983 56700.00000 0 -2425179.886 -21936644.761 -12760717.823 10 0 60983 57600.00000 0 -2346038.082 -23345369.176 -9976042.540 10 0 60983 58500.00000 0 -2393309.232 -24401874.266 -6997290.738 10 0 60983 59400.00000 0 -2518060.029 -25076826.276 -3882440.586 10 0 60983 60300.00000 0 -2667151.252 -25353413.672 -692094.742 10 0 60983 61200.00000 0 -2785732.584 -25227984.978 2511706.175 10 0 60983 62100.00000 0 -2819810.974 -24710151.767 5666696.134 10 0 60983 63000.00000 0 -2718782.695 -23822353.495 8711597.894 10 0 60983 63900.00000 0 -2437821.173 -22598903.655 11587314.586 10 0 60983 64800.00000 0 -1940019.086 -21084558.500 14238075.217 10 0 60983 65700.00000 0 -1198193.958 -19332669.472 16612511.907 10 0 60983 66600.00000 0 -196281.032 -17402997.625 18664648.313 10 0 60983 67500.00000 0 1069745.259 -15359282.018 20354780.858 10 0 60983 68400.00000 0 2591459.960 -13266663.760 21650236.731 10 0 60983 69300.00000 0 4348103.798 -11189072.890 22525995.151 10 0 60983 70200.00000 0 6307222.452 -9186686.196 22965161.157 10 0 60983 71100.00000 0 8425802.818 -7313560.662 22959283.874 10 0 60983 72000.00000 0 10651859.818 -5615539.661 22508514.046 10 0 60983 72900.00000 0 12926408.838 -4128517.408 21621598.357 10 0 60983 73800.00000 0 15185743.115 -2877132.374 20315710.866 10 0 60983 74700.00000 0 17363922.769 -1873942.640 18616124.611 10 0 60983 75600.00000 0 19395373.387 -1119116.366 16555729.156 10 0 60983 76500.00000 0 21217487.312 -600649.350 14174402.537 10 0 60983 77400.00000 0 22773120.287 -295099.987 11518248.746 10 0 60983 78300.00000 0 24012880.073 -168810.429 8638714.388 10 0 60983 79200.00000 0 24897111.816 -179562.563 5591600.579 10 0 60983 80100.00000 0 25397497.103 -278599.099 2435988.392 10 0 60983 81000.00000 0 25498199.418 -412924.592 -766901.923 10 0 60983 81900.00000 0 25196507.308 -527789.185 -3954896.189 10 0 60983 82800.00000 0 24502947.516 -569249.880 -7066072.982 10 0 60983 83700.00000 0 23440862.380 -486700.533 -10039968.161 10 0 60983 84600.00000 0 22045468.376 -235262.771 -12818753.439 10 0 60983 85500.00000 0 20362434.545 222064.317 -15348365.559 10 0 60984 0.00000 0 18446039.974 912587.858 -17579563.411 10 0 60984 900.00000 0 16356986.094 1852516.863 -19468893.139 10 0 60984 1800.00000 0 14159957.789 3046029.901 -20979539.062 10 0 60984 2700.00000 0 11921031.911 4484856.989 -22082047.445 10 0 60984 3600.00000 0 9705044.092 6148394.228 -22754905.652 10 0 60984 4500.00000 0 7573023.036 8004348.340 -22984966.403 10 0 60984 5400.00000 0 5579799.663 10009885.499 -22767708.364 10 0 60984 6300.00000 0 3771890.952 12113237.567 -22107327.821 10 0 60984 7200.00000 0 2185746.718 14255699.379 -21016659.353 10 0 60984 8100.00000 0 846432.228 16373934.118 -19516926.846 10 0 60984 9000.00000 0 -233198.871 18402490.611 -17637329.466 10 0 60984 9900.00000 0 -1052807.557 20276427.154 -15414470.565 10 0 60984 10800.00000 0 -1624336.793 21933931.818 -12891640.627 10 0 60984 11700.00000 0 -1971254.468 23318829.121 -10117968.399 10 0 60984 12600.00000 0 -2127305.320 24382867.569 -7147457.145 10 0 60984 13500.00000 0 -2134826.202 25087691.819 -4037925.383 10 0 60984 14400.00000 0 -2042697.564 25406416.548 -849873.468 10 0 60984 15300.00000 0 -1904019.406 25324736.034 2354701.005 10 0 60984 16200.00000 0 -1773611.565 24841523.242 5513515.008 10 0 60984 17100.00000 0 -1705445.404 23968893.897 8565214.774 10 0 60984 18000.00000 0 -1750116.598 22731733.709 11450569.049 10 0 60984 18900.00000 0 -1952466.573 21166709.565 14113617.420 10 0 60984 19800.00000 0 -2349453.499 19320807.066 16502751.450 10 0 60984 20700.00000 0 -2968362.817 17249456.464 18571707.961 10 0 60984 21600.00000 0 -3825432.623 15014325.856 20280455.993 10 0 60984 22500.00000 0 -4924951.679 12680873.954 21595961.243 10 0 60984 23400.00000 0 -6258867.823 10315764.178 22492814.381 10 0 60984 24300.00000 0 -7806923.319 7984247.062 22953712.306 10 0 60984 25200.00000 0 -9537311.861 5747618.740 22969784.222 10 0 60984 26100.00000 0 -11407830.399 3660859.798 22540757.117 10 0 60984 27000.00000 0 -13367478.662 1770550.960 21674958.084 10 0 60984 27900.00000 0 -15358440.903 113150.615 20389153.662 10 0 60984 28800.00000 0 -17318368.543 -1286295.811 18708229.109 10 0 60984 29700.00000 0 -19182870.007 -2414962.332 16664713.283 10 0 60984 30600.00000 0 -20888105.229 -3272532.308 14298157.462 10 0 60984 31500.00000 0 -22373377.648 -3870960.535 11654379.099 10 0 60984 32400.00000 0 -23583616.258 -4233718.127 8784584.045 10 0 60984 33300.00000 0 -24471644.353 -4394552.172 5744383.197 10 0 60984 34200.00000 0 -25000140.010 -4395812.485 2592721.762 10 0 60984 35100.00000 0 -25143205.802 -4286415.975 -609258.735 10 0 60984 36000.00000 0 -24887481.198 -4119534.578 -3799403.987 10 0 60984 36900.00000 0 -24232749.989 -3950104.553 -6915753.043 10 0 60984 37800.00000 0 -23192016.155 -3832262.808 -9897743.440 10 0 60984 38700.00000 0 -21791043.798 -3816819.207 -12687391.559 10 0 60984 39600.00000 0 -20067379.350 -3948872.633 -15230424.711 10 0 60984 40500.00000 0 -18068896.105 -4265672.626 -17477342.416 10 0 60984 41400.00000 0 -15851921.254 -4794818.239 -19384385.735 10 0 60984 42300.00000 0 -13479023.255 -5552871.605 -20914395.275 10 0 60984 43200.00000 0 -11016551.709 -6544446.179 -22037540.801 10 0 60984 44100.00000 0 -8532032.252 -7761809.685 -22731907.964 10 0 60984 45000.00000 0 -6091525.172 -9185019.962 -22983930.388 10 0 60984 45900.00000 0 -3757057.865 -10782589.419 -22788658.515 10 0 60984 46800.00000 0 -1584238.133 -12512651.435 -22149859.684 10 0 60984 47700.00000 0 379852.237 -14324580.705 -21079947.272 10 0 60984 48600.00000 0 2098396.058 -16161000.255 -19599740.020 10 0 60984 49500.00000 0 3546139.415 -17960091.342 -17738056.024 10 0 60984 50400.00000 0 4710196.886 -19658109.391 -15531149.165 10 0 60984 51300.00000 0 5590330.667 -21192000.251 -13021998.986 10 0 60984 52200.00000 0 6198693.255 -22502006.564 -10259467.960 10 0 60984 53100.00000 0 6559046.037 -23534154.276 -7297343.001 10 0 60984 54000.00000 0 6705488.466 -24242514.356 -4193280.436 10 0 60984 54900.00000 0 6680753.249 -24591144.222 -1007675.732 10 0 60984 55800.00000 0 6534141.331 -24555627.044 2197519.134 10 0 60984 56700.00000 0 6319185.719 -24124144.220 5360006.720 10 0 60984 57600.00000 0 6091144.397 -23298036.210 8418359.260 10 0 60984 58500.00000 0 5904429.631 -22091828.687 11313213.554 10 0 60984 59400.00000 0 5810083.209 -20532723.552 13988422.093 10 0 60984 60300.00000 0 5853404.814 -18659576.860 16392138.026 10 0 60984 61200.00000 0 6071833.833 -16521407.108 18477813.283 10 0 60984 62100.00000 0 6493173.816 -14175496.681 20205091.194 10 0 60984 63000.00000 0 7134234.065 -11685165.837 21540577.360 10 0 60984 63900.00000 0 7999945.194 -9117311.776 22458474.965 10 0 60984 64800.00000 0 9082985.556 -6539814.576 22941073.514 10 0 60984 65700.00000 0 10363934.205 -4018916.753 22979082.704 10 0 60984 66600.00000 0 11811944.271 -1616683.970 22571805.883 10 0 60984 67500.00000 0 13385909.164 611349.299 21727150.381 10 0 60984 68400.00000 0 15036073.791 2618253.121 20461474.775 10 0 60984 69300.00000 0 16706024.597 4367410.010 18799275.858 10 0 60984 70200.00000 0 18334976.558 5833787.956 16772720.868 10 0 60984 71100.00000 0 19860262.837 7004726.949 14421033.164 10 0 60984 72000.00000 0 21219924.150 7880207.220 11789742.248 10 0 60984 72900.00000 0 22355290.362 8472588.832 8929811.559 10 0 60984 73800.00000 0 23213446.774 8805834.012 5896659.845 10 0 60984 74700.00000 0 23749481.787 8914245.175 2749094.274 10 0 60984 75600.00000 0 23928421.396 8840771.863 -451824.745 10 0 60984 76500.00000 0 23726768.596 8634958.022 -3643965.329 10 0 60984 77400.00000 0 23133582.024 8350616.353 -6765329.638 10 0 60984 78300.00000 0 22151047.290 8043328.200 -9755259.540 10 0 60984 79200.00000 0 20794515.603 7767875.043 -12555618.663 10 0 60984 80100.00000 0 19092006.695 7575710.788 -15111927.345 10 0 60984 81000.00000 0 17083195.571 7512582.527 -17374427.870 10 0 60984 81900.00000 0 14817924.354 7616401.287 -19299058.782 10 0 60984 82800.00000 0 12354300.595 7915453.858 -20848318.788 10 0 60984 83700.00000 0 9756460.786 8427032.396 -21992003.077 10 0 60984 84600.00000 0 7092091.942 9156540.904 -22707797.369 10 0 60984 85500.00000 0 4429814.345 10097117.480 -22981717.853 10 0 60985 0.00000 0 1836534.551 11229789.377 -22808388.228 10 0 60985 900.00000 0 -625122.581 12524156.032 -22191148.049 10 0 60985 1800.00000 0 -2899192.511 13939570.694 -21141990.326 10 0 60985 2700.00000 0 -4938466.036 15426773.627 -19681329.095 10 0 60985 3600.00000 0 -6706210.268 16929907.170 -17837601.348 10 0 60985 4500.00000 0 -8177445.700 18388828.605 -15646710.990 10 0 60985 5400.00000 0 -9339726.649 19741623.321 -13151325.619 10 0 60985 6300.00000 0 -10193393.558 20927212.207 -10400039.961 10 0 60985 7200.00000 0 -10751288.015 21887942.956 -7446422.665 10 0 60985 8100.00000 0 -11037944.127 22572055.641 -4347965.556 10 0 60985 9000.00000 0 -11088292.174 22935918.117 -1164956.544 10 0 60985 9900.00000 0 -10945931.028 22945936.665 2040700.963 10 0 60985 10800.00000 0 -10661044.181 22580061.136 5206698.295 10 0 60985 11700.00000 0 -10288049.039 21828821.203 8271537.028 10 0 60985 12600.00000 0 -9883080.286 20695850.307 11175725.463 10 0 60985 13500.00000 0 -9501414.703 19197875.626 13862932.446 10 0 60985 14400.00000 0 -9194946.899 17364174.943 16281076.128 10 0 60985 15300.00000 0 -9009822.757 15235523.600 18383326.830 10 0 60985 16200.00000 0 -8984330.307 12862675.902 20129005.275 10 0 60985 17100.00000 0 -9147136.478 10304444.401 21484359.802 10 0 60985 18000.00000 0 -9515943.388 7625456.924 22423208.626 10 0 60985 18900.00000 0 -10096620.110 4893684.022 22927435.988 10 0 60985 19800.00000 0 -10882845.916 2177838.618 22987333.750 10 0 60985 20700.00000 0 -11856279.820 -455245.488 22601782.765 10 0 60985 21600.00000 0 -12987249.432 -2943149.033 21778271.188 10 0 60985 22500.00000 0 -14235930.783 -5230213.174 20532749.614 10 0 60985 23400.00000 0 -15553970.524 -7269600.150 18889325.738 10 0 60985 24300.00000 0 -16886483.600 -9024984.794 16879803.932 10 0 60985 25200.00000 0 -18174343.914 -10471807.967 14543077.820 10 0 60985 26100.00000 0 -19356673.091 -11598040.904 11924386.643 10 0 60985 27000.00000 0 -20373423.963 -12404429.447 9074448.675 10 0 60985 27900.00000 0 -21167951.032 -12904208.591 6048487.447 10 0 60985 28800.00000 0 -21689460.253 -13122299.659 2905168.771 10 0 60985 29700.00000 0 -21895235.038 -13094024.032 -294531.513 10 0 60985 30600.00000 0 -21752544.335 -12863387.621 -3488507.481 10 0 60985 31500.00000 0 -21240151.539 -12481008.471 -6614727.951 10 0 60985 32400.00000 0 -20349359.520 -12001775.038 -9612442.614 10 0 60985 33300.00000 0 -19084546.313 -11482334.287 -12423365.753 10 0 60985 34200.00000 0 -17463167.360 -10978516.126 -14992813.973 10 0 60985 35100.00000 0 -15515222.623 -10542803.563 -17270775.325 10 0 60985 36000.00000 0 -13282209.388 -10221956.186 -19212888.513 10 0 60985 36900.00000 0 -10815603.294 -10054888.184 -20781312.619 10 0 60985 37800.00000 0 -8174930.009 -10070891.399 -21945470.029 10 0 60985 38700.00000 0 -5425507.181 -10288279.358 -22682647.781 10 0 60985 39600.00000 0 -2635950.268 -10713510.436 -22978445.312 10 0 60985 40500.00000 0 124454.284 -11340827.994 -22827059.662 10 0 60985 41400.00000 0 2788399.382 -12152433.514 -22231402.321 10 0 60985 42300.00000 0 5293120.984 -13119186.093 -21203045.178 10 0 60985 43200.00000 0 7582768.571 -14201799.352 -19761996.412 10 0 60985 44100.00000 0 9610483.940 -15352485.649 -17936310.433 10 0 60985 45000.00000 0 11340101.960 -16516978.364 -15761539.387 10 0 60985 45900.00000 0 12747402.979 -17636846.873 -13280036.852 10 0 60985 46800.00000 0 13820865.397 -18652006.219 -10540127.459 10 0 60985 47700.00000 0 14561888.066 -19503315.073 -7595158.986 10 0 60985 48600.00000 0 14984474.691 -20135151.722 -4502455.928 10 0 60985 49500.00000 0 15114395.200 -20497858.704 -1322195.647 10 0 60985 50400.00000 0 14987861.229 -20549952.323 1883770.121 10 0 60985 51300.00000 0 14649773.441 -20260003.347 5053124.592 10 0 60985 52200.00000 0 14151616.414 -19608109.305 8124301.736 10 0 60985 53100.00000 0 13549091.531 -18586896.256 11037684.253 10 0 60985 54000.00000 0 12899589.052 -17202007.981 13736760.024 10 0 60985 54900.00000 0 12259606.899 -15472062.213 16169214.602 10 0 60985 55800.00000 0 11682225.461 -13428076.001 18287938.767 10 0 60985 56700.00000 0 11214744.803 -11112384.390 20051932.360 10 0 60985 57600.00000 0 10896583.385 -8577097.575 21427087.803 10 0 60985 58500.00000 0 10757526.006 -5882160.586 22386839.312 10 0 60985 59400.00000 0 10816393.793 -3093095.672 22912666.449 10 0 60985 60300.00000 0 11080191.292 -278520.229 22994443.469 10 0 60985 61200.00000 0 11543765.805 2492457.868 22630628.626 10 0 60985 62100.00000 0 12189992.890 5152861.033 21828290.482 10 0 60985 63000.00000 0 12990480.229 7640371.810 20602970.964 10 0 60985 63900.00000 0 13906760.689 9899668.498 18978387.735 10 0 60985 64800.00000 0 14891925.194 11884471.312 16985981.151 10 0 60985 65700.00000 0 15892627.790 13559215.477 14664313.754 10 0 60985 66600.00000 0 16851379.726 14900282.855 12058332.967 10 0 60985 67500.00000 0 17709037.084 15896741.713 9218510.165 10 0 60985 68400.00000 0 18407378.178 16550564.366 6199871.733 10 0 60985 69300.00000 0 18891662.668 16876313.981 3060940.027 10 0 60985 70200.00000 0 19113064.753 16900313.852 -137395.931 10 0 60985 71100.00000 0 19030877.569 16659334.125 -3333058.522 10 0 60985 72000.00000 0 18614395.097 16198851.199 -6463985.602 10 0 60985 72900.00000 0 17844391.158 15570953.200 -9469337.062 10 0 60985 73800.00000 0 16714131.694 14831979.927 -12290680.134 10 0 60985 74700.00000 0 15229876.061 14039997.105 -14873129.870 10 0 60985 75600.00000 0 13410844.468 13252211.903 -17166422.157 10 0 60985 76500.00000 0 11288651.150 12522439.286 -19125897.806 10 0 60985 77400.00000 0 8906225.396 11898726.736 -20713378.120 10 0 60985 78300.00000 0 6316264.102 11421238.183 -21897914.451 10 0 60985 79200.00000 0 3579279.290 11120487.101 -22656396.833 10 0 60985 80100.00000 0 761321.150 11015993.897 -22974009.524 10 0 60985 81000.00000 0 -2068529.208 11115424.822 -22844524.347 10 0 60985 81900.00000 0 -4840793.313 11414249.192 -22270425.852 10 0 60985 82800.00000 0 -7488245.855 11895929.779 -21262865.639 10 0 60985 83700.00000 0 -9948472.000 12532638.592 -19841446.469 10 0 60985 84600.00000 0 -12166225.185 13286467.958 -18033840.185 10 0 60985 85500.00000 0 -14095487.344 14111085.703 -15875246.723 10 0 60986 0.00000 0 -15701145.854 14953764.207 -13407705.008 10 0 60986 900.00000 0 -16960218.579 15757697.643 -10679267.870 10 0 60986 1800.00000 0 -17862574.537 16464507.705 -7743060.806 10 0 60986 2700.00000 0 -18411124.038 17016832.732 -4656239.059 10 0 60986 3600.00000 0 -18621469.530 17360888.854 -1478867.246 10 0 60986 4500.00000 0 -18521034.446 17448894.607 1727257.013 10 0 60986 5400.00000 0 -18147708.325 17241255.824 4899811.488 10 0 60986 6300.00000 0 -17548067.100 16708418.062 7977165.429 10 0 60986 7200.00000 0 -16775245.236 15832308.072 10899578.972 10 0 60986 8100.00000 0 -15886550.847 14607303.454 13610362.209 10 0 60986 9000.00000 0 -14940925.324 13040689.681 16056971.311 10 0 60986 9900.00000 0 -13996355.151 11152585.364 18192020.734 10 0 60986 10800.00000 0 -13107344.951 8975338.917 19974192.526 10 0 60986 11700.00000 0 -12322557.761 6552421.720 21369026.102 10 0 60986 12600.00000 0 -11682720.986 3936863.690 22349574.308 10 0 60986 13500.00000 0 -11218885.015 1189295.787 22896914.313 10 0 60986 14400.00000 0 -10951106.473 -1624320.024 23000504.638 10 0 60986 15300.00000 0 -10887610.309 -4435180.290 22658382.351 10 0 60986 16200.00000 0 -11024464.979 -7174247.193 21877197.329 10 0 60986 17100.00000 0 -11345783.791 -9774866.792 20672083.213 10 0 60986 18000.00000 0 -11824443.747 -12175291.416 19066367.476 10 0 60986 18900.00000 0 -12423291.883 -14321003.155 17091125.765 10 0 60986 19800.00000 0 -13096788.937 -16166743.431 14784588.336 10 0 60986 20700.00000 0 -13793021.958 -17678165.416 12191409.130 10 0 60986 21600.00000 0 -14456002.001 -18833041.409 9361810.543 10 0 60986 22500.00000 0 -15028150.895 -19621975.449 6350619.389 10 0 60986 23400.00000 0 -15452872.841 -20048591.663 3216211.865 10 0 60986 24300.00000 0 -15677102.629 -20129190.631 19387.238 10 0 60986 25200.00000 0 -15653722.808 -19891888.117 -3177808.300 10 0 60986 26100.00000 0 -15343747.215 -19375272.252 -6313284.918 10 0 60986 27000.00000 0 -14718177.733 -18626635.529 -9326116.083 10 0 60986 27900.00000 0 -13759454.589 -17699856.033 -12157725.411 10 0 60986 28800.00000 0 -12462437.421 -16653017.198 -14753029.842 10 0 60986 29700.00000 0 -10834873.976 -15545866.620 -17061516.418 10 0 60986 30600.00000 0 -8897334.799 -14437221.321 -19038231.193 10 0 60986 31500.00000 0 -6682614.801 -13382429.194 -20644660.508 10 0 60986 32400.00000 0 -4234625.015 -12430994.079 -21849487.086 10 0 60986 33300.00000 0 -1606819.361 -11624464.917 -22629205.872 10 0 60986 34200.00000 0 1139779.127 -10994678.344 -22968587.333 10 0 60986 35100.00000 0 3938871.257 -10562429.058 -22860978.919 10 0 60986 36000.00000 0 6721398.992 -10336624.224 -22308438.582 10 0 60986 36900.00000 0 9418182.661 -10313957.616 -21321697.487 10 0 60986 37800.00000 0 11962568.534 -10479117.256 -19919952.405 10 0 60986 38700.00000 0 14292976.617 -10805517.553 -18130491.610 10 0 60986 39600.00000 0 16355242.525 -11256524.751 -15988161.438 10 0 60986 40500.00000 0 18104655.943 -11787123.392 -13534683.875 10 0 60986 41400.00000 0 19507610.831 -12345952.741 -10817838.609 10 0 60986 42300.00000 0 20542798.897 -12877626.250 -7890525.813 10 0 60986 43200.00000 0 21201897.174 -13325235.052 -4809728.482 10 0 60986 44100.00000 0 21489721.991 -13632928.639 -1635395.202 10 0 60986 45000.00000 0 21423844.245 -13748462.583 1570733.999 10 0 60986 45900.00000 0 21033683.743 -13625604.719 4746334.993 10 0 60986 46800.00000 0 20359122.398 -13226297.361 7829715.783 10 0 60986 47700.00000 0 19448696.300 -12522483.721 10761017.260 10 0 60986 48600.00000 0 18357444.270 -11497521.147 13483374.754 10 0 60986 49500.00000 0 17144504.608 -10147121.476 15944017.746 10 0 60986 50400.00000 0 15870561.944 -8479778.874 18095286.659 10 0 60986 51300.00000 0 14595251.813 -6516667.147 19895547.646 10 0 60986 52200.00000 0 13374631.789 -4291010.630 21309988.592 10 0 60986 53100.00000 0 12258824.688 -1846954.646 22311282.044 10 0 60986 54000.00000 0 11289931.679 762017.977 22880103.452 10 0 60986 54900.00000 0 10500301.490 3475059.253 23005495.888 10 0 60986 55800.00000 0 9911226.937 6226236.397 22685075.143 10 0 60986 56700.00000 0 9532122.068 8947026.888 21925071.976 10 0 60986 57600.00000 0 9360213.374 11568926.271 20740210.979 10 0 60986 58500.00000 0 9380757.239 14026062.062 19153428.390 10 0 60986 59400.00000 0 9567774.145 16257706.886 17195433.835 10 0 60986 60300.00000 0 9885268.779 18210587.896 14904123.748 10 0 60986 61200.00000 0 10288885.071 19840897.605 12323856.838 10 0 60986 62100.00000 0 10727926.995 21115923.333 9504604.580 10 0 60986 63000.00000 0 11147660.615 22015227.899 6500992.100 10 0 60986 63900.00000 0 11491800.772 22531332.475 3371247.148 10 0 60986 64800.00000 0 11705077.799 22669873.092 176076.835 10 0 60986 65700.00000 0 11735775.829 22449224.031 -3022506.555 10 0 60986 66600.00000 0 11538135.126 21899603.662 -6162387.997 10 0 60986 67500.00000 0 11074516.122 21061699.965 -9182556.988 10 0 60986 68400.00000 0 10317232.619 19984873.312 -12024295.876 10 0 60986 69300.00000 0 9249975.257 18725011.922 -14632325.697 10 0 60986 70200.00000 0 7868763.471 17342130.252 -16955886.715 10 0 60986 71100.00000 0 6182383.909 15897811.445 -18949732.122 10 0 60986 72000.00000 0 4212294.909 14452601.688 -20575015.058 10 0 60986 72900.00000 0 1991999.095 13063466.346 -21800051.232 10 0 60986 73800.00000 0 -434091.375 11781415.134 -22600941.978 10 0 60986 74700.00000 0 -3012250.992 10649396.451 -22962045.257 10 0 60986 75600.00000 0 -5681433.079 9700549.584 -22876285.211 10 0 60986 76500.00000 0 -8375575.824 8956888.290 -22345293.951 10 0 60986 77400.00000 0 -11026126.602 8428471.074 -21379382.606 10 0 60986 78300.00000 0 -13564679.785 8113092.803 -19997341.938 10 0 60986 79200.00000 0 -15925618.240 7996510.196 -18226076.204 10 0 60986 80100.00000 0 -18048648.384 8053191.097 -16100077.274 10 0 60986 81000.00000 0 -19881122.996 8247555.147 -13660749.211 10 0 60986 81900.00000 0 -21380054.845 8535652.534 -10955596.584 10 0 60986 82800.00000 0 -22513737.077 8867208.832 -8037292.685 10 0 60986 83700.00000 0 -23262902.994 9187948.311 -4962646.310 10 0 60986 84600.00000 0 -23621377.314 9442096.244 -1791487.905 10 0 60986 85500.00000 0 -23596192.560 9574953.174 1414502.352 99